Location: Unspecified
(37.8846°N, 4.7796°W)
Time: 15:53:10
(UTC+02:00)

ISS - Visible Passes

Search period start: 21 May 2026 00:00
Search period end: 31 May 2026 00:00
Orbit: 414 x 424 km, 51.6° (Epoch: 21 May)

Date Brightness Start Highest point End Pass type
(mag) Time Alt. Az. Time Alt. Az. Time Alt. Az.
21 May -1.8 00:14:42 10° NW 00:16:41 28° NNW 00:16:41 28° NNW visible
21 May -2.1 23:27:11 10° NNW 23:30:03 26° NNE 23:30:39 24° NE visible
22 May -1.5 22:39:45 10° NNW 22:42:10 18° NNE 22:44:34 10° ENE visible
23 May -1.7 00:15:55 10° NW 00:17:34 27° WNW 00:17:34 27° WNW visible
23 May -3.7 23:28:10 10° NW 23:31:30 68° NE 23:31:35 67° NE visible
24 May -2.8 22:40:33 10° NW 22:43:42 39° NE 22:45:38 19° E visible
25 May -1.0 00:17:48 10° W 00:18:35 14° W 00:18:35 14° W visible
25 May -2.8 23:29:35 10° WNW 23:32:40 35° SW 23:32:40 35° SW visible
26 May -3.7 22:41:39 10° NW 22:44:58 67° SW 22:46:48 24° SE visible
27 May -1.1 23:32:31 10° WSW 23:33:34 11° SW 23:33:56 11° SW visible
28 May -1.7 22:43:26 10° W 22:45:57 20° SW 22:48:11 11° S visible
